Location: Altleiningen
(49.5078°N, 8.0741°E)
Time: 23:58:43
(UTC+00:00)

ATLAS CENTAUR R/B - Pass Details

Date: 03 March 2021
Orbit: 475 x 670 km, 64.7° (Epoch: 30 March)

Event Time Altitude Azimuth Distance (km) Brightness Sun altitude
Rises 18:19:09 0° 196° (SSW) 2,520 4.9 -11.4°
Reaches altitude 10° 18:21:23 10° 187° (S) 1,640 3.8 -11.7°
Maximum altitude 18:24:43 35° 121° (ESE) 791 1.7 -12.3°
Enters shadow 18:27:02 17° 63° (ENE) 1,284 2.7 -12.7°
